Lynchburg, VA

1:10 PM EDT on March 28, 2017 (GMT -0400)
Lynchburg Regional-Glenn

Weather History for KLYH - November, 2012

Change the Weather History Date:

Friday, November 2, 2012

  Actual Average Record
Temperature  
Mean Temperature 48 °F 51 °F  
Max Temperature 57 °F 64 °F 83 °F (1974)
Min Temperature 38 °F 39 °F 25 °F (1930)
Degree Days  
Heating Degree Days 17 14  
Month to date heating degree days 36 28  
Since 1 July heating degree days 355 375  
Cooling Degree Days 0 0  
Month to date cooling degree days 0 0  
Year to date cooling degree days 1244 1031  
Moisture  
Dew Point 26 °F    
Average Humidity 47    
Maximum Humidity 70    
Minimum Humidity 23    
Precipitation  
Precipitation 0.00 in 0.12 in 1.57 in (1985)
Month to date precipitation T 0.24  
Year to date precipitation 26.58 35.16  
Snow  
Snow 0.00 in - - ()
Month to date snowfall 0.0  
Since 1 July snowfall 0.0  
Since 1 September snowfall 0.0  
Snow Depth 0.00 in    
Sea Level Pressure  
Sea Level Pressure 29.87 in    
Wind  
Wind Speed 5 mph (West)    
Max Wind Speed 15 mph    
Max Gust Speed 24 mph    
Visibility 10 miles    
Events      
T = Trace of Precipitation, MM = Missing Value Source: NWS Daily Summary

Daily Weather History Graph

Daily Weather History Graph

Search for Another Location

Airport or City:

Trip Planner

Search our weather history database for the weather conditions in past years. The results will help you decide how hot, cold, wet, or windy it might be!

Date:

Astronomy

Nov. 02, 2012 Rise Set
Actual Time 7:42 AM EDT 6:17 PM EDT
Civil Twilight 7:15 AM EDT 6:44 PM EDT
Nautical Twilight 6:44 AM EDT 7:15 PM EDT
Astronomical Twilight 6:14 AM EDT 7:45 PM EDT
Moon 9:05 PM EDT (11/2) 10:59 AM EDT (11/2)
Length of Visible Light 11h 28m
Length of Day
10h 34m
Waning Gibbous, 87% of the Moon is Illuminated
Nov 2
Waning Gibbous
Nov 6
Last Quarter
Nov 13
New
Nov 20
First Quarter
Nov 28
Full

Hourly Weather History & Observations

Time (EDT) Temp. Windchill Dew Point Humidity Pressure Visibility Wind Dir Wind Speed Gust Speed Precip Events Conditions
12:54 AM 41.0 °F - 28.0 °F 60% 29.83 in 10.0 mi Calm Calm - N/A   Clear
1:54 AM 41.0 °F 39.0 °F 26.1 °F 55% 29.83 in 10.0 mi WSW 3.5 mph - N/A   Clear
2:54 AM 43.0 °F 41.3 °F 25.0 °F 49% 29.82 in 10.0 mi SW 3.5 mph - N/A   Clear
3:54 AM 39.9 °F 35.8 °F 24.1 °F 53% 29.83 in 10.0 mi SW 5.8 mph - N/A   Clear
4:54 AM 39.9 °F - 25.0 °F 55% 29.83 in 10.0 mi Calm Calm - N/A   Mostly Cloudy
5:54 AM 42.1 °F 40.2 °F 26.1 °F 53% 29.83 in 10.0 mi SW 3.5 mph - N/A   Overcast
6:54 AM 37.9 °F - 28.9 °F 70% 29.83 in 10.0 mi Calm Calm - N/A   Overcast
7:54 AM 39.9 °F - 28.0 °F 63% 29.84 in 10.0 mi Calm Calm - N/A   Overcast
8:54 AM 41.0 °F - 30.0 °F 65% 29.85 in 10.0 mi Calm Calm - N/A   Overcast
9:54 AM 43.0 °F - 33.1 °F 68% 29.86 in 10.0 mi North - - N/A   Overcast
10:54 AM 46.9 °F - 28.9 °F 50% 29.86 in 10.0 mi WSW 4.6 mph - N/A   Overcast
11:54 AM 48.9 °F - 28.0 °F 44% 29.86 in 10.0 mi Variable 3.5 mph - N/A   Mostly Cloudy
12:54 PM 52.0 °F - 27.0 °F 38% 29.84 in 10.0 mi West 10.4 mph 16.1 mph N/A   Overcast
1:54 PM 54.0 °F - 26.1 °F 34% 29.82 in 10.0 mi WNW 13.8 mph 24.2 mph N/A   Scattered Clouds
2:54 PM 57.0 °F - 23.0 °F 27% 29.81 in 10.0 mi NW 10.4 mph 20.7 mph N/A   Clear
3:54 PM 57.0 °F - 19.9 °F 24% 29.82 in 10.0 mi NW 10.4 mph - N/A   Clear
4:54 PM 55.9 °F - 19.9 °F 25% 29.85 in 10.0 mi WNW 11.5 mph 17.3 mph N/A   Clear
5:54 PM 53.1 °F - 21.0 °F 29% 29.88 in 10.0 mi Calm Calm - N/A   Clear
6:54 PM 48.0 °F - 23.0 °F 37% 29.91 in 10.0 mi NW 5.8 mph - N/A   Clear
7:54 PM 46.9 °F - 24.1 °F 41% 29.94 in 10.0 mi NW 10.4 mph - N/A   Clear
8:54 PM 46.9 °F - 25.0 °F 42% 29.95 in 10.0 mi WNW 6.9 mph - N/A   Clear
9:54 PM 43.0 °F 41.3 °F 27.0 °F 53% 29.97 in 10.0 mi West 3.5 mph - N/A   Clear
10:54 PM 44.1 °F 41.5 °F 26.1 °F 49% 29.96 in 10.0 mi West 4.6 mph - N/A   Clear
11:54 PM 44.1 °F 40.8 °F 27.0 °F 51% 29.97 in 10.0 mi WNW 5.8 mph - N/A   Clear